This demonstration page uses our WeatherBlox Daily Observations layout. Learn more.

Left ArrowRight Arrow

Hourly Observations for August 14, 2015

Temp ( °F °C ) Dew Point ( °F °C ) Humidity (%) Winds ( mph kmh ) Pressure ( in mb ) Visibility ( mi km ) Precip ( " mm )
12:15 am 00:15 Clear 71 21.4 66 18.9 86 86 S 5 7 29.97 1015 10 16 N/A
12:35 am 00:35 Clear 70 21 66 18.7 87 87 Calm 29.97 1015 10 16 N/A
12:55 am 00:55 Clear 67 19.7 65 18.2 91 91 NNE 8 13 30.03 1017 10 16 0.00 0.00
1:15 am 01:15 Clear 68 20 65 18.5 91 91 Calm 30.03 1017 10 16 N/A
1:35 am 01:35 Clear 67 19.6 65 18.2 92 92 Calm 30.03 1017 10 16 N/A
1:55 am 01:55 Clear 67 19.6 65 18.1 91 91 Calm 30.03 1017 10 16 N/A
2:15 am 02:15 Clear 66 19.1 64 18 93 93 E 6 9 30.03 1017 10 16 N/A
2:35 am 02:35 Clear 67 19.2 65 18.1 93 93 E 5 7 30.03 1017 7 11 N/A
2:55 am 02:55 Clear 66 18.7 64 17.7 94 94 ESE 5 7 30.03 1017 10 16 N/A
3:15 am 03:15 Clear 66 19 64 17.8 93 93 SE 3 6 30.03 1017 10 16 N/A
3:35 am 03:35 Clear 67 19.5 65 18.2 92 92 Calm 30.03 1017 10 16 N/A
3:55 am 03:55 Clear 66 19 64 17.9 93 93 SSE 6 9 30.03 1017 10 16 N/A
4:15 am 04:15 Clear 66 19 64 18 94 94 SSE 3 6 30.03 1017 10 16 N/A
4:35 am 04:35 Clear 66 19 64 17.9 93 93 Calm 30.03 1017 10 16 N/A
4:55 am 04:55 Partly Cloudy 66 19 64 17.6 92 92 Calm 30.03 1017 10 16 N/A
5:15 am 05:15 Partly Cloudy 65 18.6 64 17.5 93 93 SSW 5 7 30.03 1017 10 16 N/A
5:35 am 05:35 Partly Cloudy 65 18.6 64 17.5 93 93 Calm 30.03 1017 10 16 N/A
5:55 am 05:55 Partly Cloudy 65 18.2 63 17.2 94 94 Calm 30.03 1017 10 16 N/A
6:15 am 06:15 Clear 65 18.2 63 17.3 95 95 Calm 30.03 1017 10 16 N/A
6:35 am 06:35 Clear 64 18 63 17.1 95 95 Calm 30.03 1017 10 16 N/A
6:55 am 06:55 Sunny with Mist and Fog 64 18 63 17.2 95 95 NNE 3 6 30.03 1017 5 8 0.00 0.00
7:15 am 07:15 Sunny with Mist and Fog 64 18 63 17.2 95 95 Calm 30.06 1018 5 8 N/A
7:35 am 07:35 Sunny with Mist and Fog 65 18.5 64 17.8 96 96 ENE 3 6 30.06 1018 5 8 N/A
7:55 am 07:55 Sunny 66 19.1 65 18.3 95 95 ENE 3 6 30.06 1018 7 11 N/A
8:15 am 08:15 Sunny 68 20.1 66 19.1 94 94 Calm 30.06 1018 10 16 N/A
8:35 am 08:35 Sunny 70 21.3 67 19.7 91 91 Calm 30.06 1018 10 16 N/A
8:55 am 08:55 Sunny 72 22.2 66 18.9 82 82 SSE 3 6 30.03 1017 10 16 N/A
9:15 am 09:15 Sunny 73 23 66 19 78 78 Calm 30.03 1017 10 16 N/A
9:35 am 09:35 Sunny 74 23.3 67 19.2 78 78 Calm 30.03 1017 10 16 N/A
9:55 am 09:55 Sunny 75 24.1 68 20 78 78 Calm 30.03 1017 10 16 N/A
10:15 am 10:15 Sunny 76 24.6 68 19.8 75 75 Calm 30.00 1016 10 16 N/A
10:35 am 10:35 Sunny 77 25 69 20.4 76 76 Calm 30.00 1016 10 16 N/A
10:55 am 10:55 Sunny 78 25.6 69 20.4 73 73 Calm 30.00 1016 10 16 N/A
11:15 am 11:15 Sunny 80 26.5 70 21 72 72 Calm 30.00 1016 10 16 N/A
11:35 am 11:35 Sunny 80 26.7 70 21.1 71 71 Calm 30.00 1016 10 16 N/A
11:55 am 11:55 Sunny 81 27 69 20.8 69 69 Calm 30.00 1016 10 16 N/A
12:15 pm 12:15 Sunny 82 27.7 72 22.4 73 73 Calm 30.00 1016 10 16 N/A
12:35 pm 12:35 Sunny 82 28 73 22.6 73 73 Calm 30.00 1016 10 16 N/A
12:55 pm 12:55 Sunny 83 28.5 73 22.6 70 70 NE 5 7 29.97 1015 10 16 N/A
1:15 pm 13:15 Sunny 84 28.9 73 22.7 69 69 Calm 29.97 1015 10 16 N/A
1:35 pm 13:35 Sunny 85 29.4 72 22.1 65 65 ESE 6 9 29.97 1015 10 16 N/A
1:55 pm 13:55 Sunny 85 29.6 73 22.8 67 67 SSE 3 6 29.97 1015 10 16 N/A
2:15 pm 14:15 Sunny 86 29.9 74 23.6 69 69 SE 6 9 29.97 1015 10 16 N/A
2:35 pm 14:35 Partly Cloudy 85 29.7 73 23 67 67 SSE 8 13 29.97 1015 10 16 N/A
2:55 pm 14:55 Partly Cloudy 86 29.8 72 22.4 65 65 ESE 8 13 29.97 1015 10 16 N/A
3:15 pm 15:15 Partly Cloudy 86 30.1 73 22.6 64 64 ESE 9 15 29.97 1015 10 16 N/A
3:35 pm 15:35 Partly Cloudy 87 30.4 74 23.1 65 65 SE 8 13 29.97 1015 10 16 N/A
3:55 pm 15:55 Sunny 87 30.6 73 22.6 62 62 SSE 8 13 29.94 1014 10 16 N/A
4:15 pm 16:15 Partly Cloudy 87 30.4 73 22.8 64 64 SSE 10 17 29.94 1014 10 16 N/A
4:35 pm 16:35 Partly Cloudy 87 30.5 73 23 64 64 SE 14 22 29.94 1014 10 16 N/A
4:55 pm 16:55 Partly Cloudy 87 30.4 73 22.5 63 63 SSE 9 15 29.94 1014 10 16 N/A
5:15 pm 17:15 Sunny 87 30.4 73 22.6 63 63 SSE 10 17 29.94 1014 10 16 N/A
5:35 pm 17:35 Sunny 86 30.1 72 22.3 63 63 SSE 10 17 29.94 1014 10 16 N/A
5:55 pm 17:55 Sunny 86 30 72 22.2 63 63 SSE 10 17 29.94 1014 10 16 N/A
6:15 pm 18:15 Sunny 86 29.9 72 22.2 63 63 SSE 13 20 29.94 1014 10 16 N/A
6:35 pm 18:35 Sunny 86 29.8 71 21.8 62 62 SE 12 19 29.94 1014 10 16 N/A
6:55 pm 18:55 Sunny 85 29.7 71 21.6 62 62 SE 10 17 29.94 1014 10 16 N/A
7:15 pm 19:15 Sunny 84 29.1 71 21.4 63 63 SE 12 19 29.94 1014 10 16 N/A
7:35 pm 19:35 Sunny 84 29 71 21.7 65 65 SE 12 19 29.91 1013 10 16 N/A
7:55 pm 19:55 Sunny 83 28.3 71 21.6 67 67 SE 8 13 29.94 1014 10 16 N/A
8:15 pm 20:15 Sunny 82 27.5 71 21.6 70 70 SE 8 13 29.94 1014 10 16 N/A
8:35 pm 20:35 Sunny 81 27.2 71 21.5 71 71 SE 8 13 29.97 1015 10 16 N/A
8:55 pm 20:55 Clear 80 26.6 71 21.8 75 75 ESE 7 11 29.97 1015 10 16 N/A
9:15 pm 21:15 Clear 79 26.1 71 21.7 77 77 SE 9 15 29.97 1015 10 16 N/A
9:35 pm 21:35 Clear 78 25.7 71 21.5 78 78 SE 9 15 29.97 1015 10 16 N/A
9:55 pm 21:55 Clear 78 25.3 71 21.4 79 79 SE 8 13 29.97 1015 10 16 N/A
10:15 pm 22:15 Clear 77 25.1 70 21 78 78 SE 9 15 29.97 1015 10 16 N/A
10:35 pm 22:35 Clear 76 24.7 69 20.7 79 79 SE 8 13 30.00 1016 10 16 N/A
10:55 pm 22:55 Clear 76 24.5 69 20.6 79 79 SE 7 11 30.00 1016 10 16 N/A
11:15 pm 23:15 Clear 75 24 69 20.5 81 81 ESE 7 11 30.03 1017 10 16 N/A
11:35 pm 23:35 Clear 74 23.5 69 20.3 82 82 SE 9 15 30.03 1017 10 16 N/A
11:55 pm 23:55 Clear 73 23 68 20.2 84 84 SE 8 13 30.03 1017 10 16 N/A

Powered by AerisWeather